Location: Goettingen
(51.5300°N, 9.9433°E)
Time: 00:43:45
(UTC+02:00)

ISS - Pass Details

Date: 28 May 2017
Orbit: 402 x 408 km, 51.6° (Epoch: 30 May)

Event Time Altitude Azimuth Distance (km) Brightness Sun altitude
Rises 01:40:47 0° 282° (WNW) 2,334 0.1 -16.8°
Reaches altitude 10° 01:42:53 10° 279° (W) 1,471 -1.0 -16.8°
Maximum altitude 01:46:08 60° 199° (SSW) 471 -3.9 -16.7°
Enters shadow 01:47:24 32° 132° (SE) 718 -2.9 -16.7°
